Time,TemperatureF,DewpointF,PressureIn,WindDirection,WindDirectionDegrees,WindSpeedMPH,WindSpeedGustMPH,Humidity,HourlyPrecipIn,Conditions,Clouds,dailyrainin,SolarRadiationWatts/m^2,SoftwareType,DateUTC
2013-04-22 00:03:00,41.0,29.0,-100.00,East,99,0.0,0.0,61,0.00,,,0.00,0.000000,,2013-04-22 04:03:00,
2013-04-22 00:12:00,41.0,29.0,-100.00,East,99,0.0,0.0,61,0.00,,,0.00,0.000000,,2013-04-22 04:12:00,
2013-04-22 00:43:00,39.0,26.0,-100.00,ESE,102,0.0,0.0,59,0.00,,,0.00,0.000000,,2013-04-22 04:43:00,
2013-04-22 00:53:00,39.0,26.0,-100.00,ESE,102,0.0,0.0,59,0.00,,,0.00,0.000000,,2013-04-22 04:53:00,
2013-04-22 01:03:00,39.0,26.0,-100.00,ESE,102,0.0,0.0,59,0.00,,,0.00,0.000000,,2013-04-22 05:03:00,
2013-04-22 01:12:00,39.0,26.0,-100.00,ESE,102,0.0,0.0,59,0.00,,,0.00,0.000000,,2013-04-22 05:12:00,
2013-04-22 01:22:00,39.0,26.0,-100.00,ESE,102,0.0,0.0,59,0.00,,,0.00,0.000000,,2013-04-22 05:22:00,
2013-04-22 01:42:00,38.0,26.0,-100.00,ESE,113,0.0,0.0,62,0.00,,,0.00,0.000000,,2013-04-22 05:42:00,
2013-04-22 01:52:00,38.0,26.0,-100.00,ESE,113,0.0,0.0,62,0.00,,,0.00,0.000000,,2013-04-22 05:52:00,
2013-04-22 02:02:00,38.0,26.0,-100.00,ESE,113,0.0,0.0,62,0.00,,,0.00,0.000000,,2013-04-22 06:02:00,
2013-04-22 02:12:00,38.0,26.0,-100.00,ESE,113,0.0,0.0,62,0.00,,,0.00,0.000000,,2013-04-22 06:12:00,
2013-04-22 02:21:00,38.0,26.0,-100.00,ESE,113,0.0,0.0,62,0.00,,,0.00,0.000000,,2013-04-22 06:21:00,
2013-04-22 02:42:00,36.0,29.0,-100.00,East,101,0.0,0.0,77,0.00,,,0.00,0.000000,,2013-04-22 06:42:00,
2013-04-22 02:52:00,36.0,29.0,-100.00,East,101,0.0,0.0,77,0.00,,,0.00,0.000000,,2013-04-22 06:52:00,
2013-04-22 03:01:00,36.0,29.0,-100.00,East,101,0.0,0.0,77,0.00,,,0.00,0.000000,,2013-04-22 07:01:00,
2013-04-22 03:12:00,36.0,29.0,-100.00,East,101,0.0,0.0,77,0.00,,,0.00,0.000000,,2013-04-22 07:12:00,
2013-04-22 03:21:00,36.0,29.0,-100.00,East,101,0.0,0.0,77,0.00,,,0.00,0.000000,,2013-04-22 07:21:00,
2013-04-22 03:42:00,36.0,27.0,-100.00,ESE,106,0.0,0.0,70,0.00,,,0.00,0.000000,,2013-04-22 07:42:00,
2013-04-22 03:52:00,36.0,27.0,-100.00,ESE,106,0.0,0.0,70,0.00,,,0.00,0.000000,,2013-04-22 07:52:00,
2013-04-22 04:02:00,36.0,27.0,-100.00,ESE,106,0.0,0.0,70,0.00,,,0.00,0.000000,,2013-04-22 08:02:00,
2013-04-22 04:11:00,36.0,27.0,-100.00,ESE,106,0.0,0.0,70,0.00,,,0.00,0.000000,,2013-04-22 08:11:00,
2013-04-22 04:22:00,36.0,27.0,-100.00,ESE,106,0.0,0.0,70,0.00,,,0.00,0.000000,,2013-04-22 08:22:00,
2013-04-22 04:42:00,36.0,30.0,-100.00,ESE,106,0.0,0.0,79,0.00,,,0.00,0.000000,,2013-04-22 08:42:00,
2013-04-22 04:53:00,36.0,30.0,-100.00,ESE,106,0.0,0.0,79,0.00,,,0.00,0.000000,,2013-04-22 08:53:00,
2013-04-22 05:01:00,36.0,30.0,-100.00,ESE,106,0.0,0.0,79,0.00,,,0.00,0.000000,,2013-04-22 09:01:00,
2013-04-22 05:11:00,36.0,30.0,-100.00,ESE,106,0.0,0.0,79,0.00,,,0.00,0.000000,,2013-04-22 09:11:00,
2013-04-22 05:21:00,36.0,30.0,-100.00,ESE,106,0.0,0.0,79,0.00,,,0.00,0.000000,,2013-04-22 09:21:00,
2013-04-22 05:42:00,35.0,28.0,-100.00,East,100,0.0,0.0,75,0.00,,,0.00,0.000000,,2013-04-22 09:42:00,
2013-04-22 05:53:00,35.0,28.0,-100.00,East,100,0.0,0.0,75,0.00,,,0.00,0.000000,,2013-04-22 09:53:00,
2013-04-22 06:03:00,35.0,28.0,-100.00,East,100,0.0,0.0,75,0.00,,,0.00,0.000000,,2013-04-22 10:03:00,
2013-04-22 06:12:00,35.0,28.0,-100.00,East,100,0.0,0.0,75,0.00,,,0.00,0.000000,,2013-04-22 10:12:00,
2013-04-22 06:22:00,35.0,28.0,-100.00,East,100,0.0,0.0,75,0.00,,,0.00,0.000000,,2013-04-22 10:22:00,
2013-04-22 06:42:00,33.0,27.0,-100.00,East,87,0.0,0.0,77,0.00,,,0.00,0.000000,,2013-04-22 10:42:00,
2013-04-22 06:53:00,33.0,27.0,-100.00,East,87,0.0,0.0,77,0.00,,,0.00,0.000000,,2013-04-22 10:53:00,
2013-04-22 07:02:00,33.0,27.0,-100.00,East,87,0.0,0.0,77,0.00,,,0.00,0.000000,,2013-04-22 11:02:00,
2013-04-22 07:12:00,33.0,27.0,-100.00,East,87,0.0,0.0,77,0.00,,,0.00,0.000000,,2013-04-22 11:12:00,
2013-04-22 07:22:00,33.0,27.0,-100.00,East,87,0.0,0.0,77,0.00,,,0.00,0.000000,,2013-04-22 11:22:00,
2013-04-22 07:42:00,33.0,28.0,-100.00,ESE,104,0.0,0.0,80,0.00,,,0.00,6.000000,,2013-04-22 11:42:00,
2013-04-22 07:53:00,33.0,28.0,-100.00,ESE,104,0.0,0.0,80,0.00,,,0.00,6.000000,,2013-04-22 11:53:00,
2013-04-22 08:02:00,33.0,28.0,-100.00,ESE,104,0.0,0.0,80,0.00,,,0.00,6.000000,,2013-04-22 12:02:00,
2013-04-22 08:12:00,33.0,28.0,-100.00,ESE,104,0.0,0.0,80,0.00,,,0.00,6.000000,,2013-04-22 12:12:00,
2013-04-22 08:21:00,33.0,28.0,-100.00,ESE,104,0.0,0.0,80,0.00,,,0.00,6.000000,,2013-04-22 12:21:00,
2013-04-22 08:42:00,38.0,34.0,-100.00,ENE,72,0.0,0.0,85,0.00,,,0.00,58.000000,,2013-04-22 12:42:00,
2013-04-22 08:52:00,38.0,34.0,-100.00,ENE,72,0.0,0.0,85,0.00,,,0.00,58.000000,,2013-04-22 12:52:00,
2013-04-22 09:01:00,38.0,34.0,-100.00,ENE,72,0.0,0.0,85,0.00,,,0.00,58.000000,,2013-04-22 13:01:00,
2013-04-22 09:11:00,38.0,34.0,-100.00,ENE,72,0.0,0.0,85,0.00,,,0.00,58.000000,,2013-04-22 13:11:00,
2013-04-22 09:22:00,38.0,34.0,-100.00,ENE,72,0.0,0.0,85,0.00,,,0.00,58.000000,,2013-04-22 13:22:00,
2013-04-22 09:42:00,51.0,43.0,-100.00,North,352,1.0,3.0,75,0.00,,,0.00,308.000000,,2013-04-22 13:42:00,
2013-04-22 09:53:00,51.0,43.0,-100.00,North,352,1.0,3.0,75,0.00,,,0.00,308.000000,,2013-04-22 13:53:00,
2013-04-22 10:02:00,51.0,43.0,-100.00,North,352,1.0,3.0,75,0.00,,,0.00,308.000000,,2013-04-22 14:02:00,
2013-04-22 10:12:00,51.0,43.0,-100.00,North,352,1.0,3.0,75,0.00,,,0.00,308.000000,,2013-04-22 14:12:00,
2013-04-22 10:21:00,51.0,43.0,-100.00,North,352,1.0,3.0,75,0.00,,,0.00,308.000000,,2013-04-22 14:21:00,
2013-04-22 10:42:00,58.0,40.0,-100.00,NW,316,3.0,9.0,51,0.00,,,0.00,491.000000,,2013-04-22 14:42:00,
2013-04-22 10:52:00,58.0,40.0,-100.00,NW,316,3.0,9.0,51,0.00,,,0.00,491.000000,,2013-04-22 14:52:00,
2013-04-22 11:02:00,58.0,40.0,-100.00,NW,316,3.0,9.0,51,0.00,,,0.00,491.000000,,2013-04-22 15:02:00,
2013-04-22 11:12:00,58.0,40.0,-100.00,NW,316,3.0,9.0,51,0.00,,,0.00,491.000000,,2013-04-22 15:12:00,
2013-04-22 11:22:00,58.0,40.0,-100.00,NW,316,3.0,9.0,51,0.00,,,0.00,491.000000,,2013-04-22 15:22:00,
2013-04-22 11:23:00,61.0,41.0,-100.00,NNW,328,3.0,7.0,48,0.00,,,0.00,644.000000,,2013-04-22 15:23:00,
2013-04-22 11:43:00,61.0,41.0,-100.00,NNW,328,3.0,7.0,48,0.00,,,0.00,644.000000,,2013-04-22 15:43:00,
2013-04-22 11:53:00,61.0,41.0,-100.00,NNW,328,3.0,7.0,48,0.00,,,0.00,644.000000,,2013-04-22 15:53:00,
2013-04-22 12:03:00,61.0,41.0,-100.00,NNW,328,3.0,7.0,48,0.00,,,0.00,644.000000,,2013-04-22 16:03:00,
2013-04-22 12:12:00,61.0,41.0,-100.00,NNW,328,3.0,7.0,48,0.00,,,0.00,644.000000,,2013-04-22 16:12:00,
2013-04-22 12:42:00,63.0,41.0,-100.00,East,82,3.0,9.0,45,0.00,,,0.00,776.000000,,2013-04-22 16:42:00,
2013-04-22 12:52:00,63.0,41.0,-100.00,East,82,3.0,9.0,45,0.00,,,0.00,776.000000,,2013-04-22 16:52:00,
2013-04-22 13:02:00,63.0,41.0,-100.00,East,82,3.0,9.0,45,0.00,,,0.00,776.000000,,2013-04-22 17:02:00,
2013-04-22 13:12:00,63.0,41.0,-100.00,East,82,3.0,9.0,45,0.00,,,0.00,776.000000,,2013-04-22 17:12:00,
2013-04-22 13:22:00,63.0,41.0,-100.00,East,82,3.0,9.0,45,0.00,,,0.00,776.000000,,2013-04-22 17:22:00,
2013-04-22 13:43:00,66.0,42.0,-100.00,ESE,115,2.0,8.0,41,0.00,,,0.00,850.000000,,2013-04-22 17:43:00,
2013-04-22 13:52:00,66.0,42.0,-100.00,ESE,115,2.0,8.0,41,0.00,,,0.00,850.000000,,2013-04-22 17:52:00,
2013-04-22 14:02:00,66.0,42.0,-100.00,ESE,115,2.0,8.0,41,0.00,,,0.00,850.000000,,2013-04-22 18:02:00,
2013-04-22 14:12:00,66.0,42.0,-100.00,ESE,115,2.0,8.0,41,0.00,,,0.00,850.000000,,2013-04-22 18:12:00,
2013-04-22 14:21:00,66.0,42.0,-100.00,ESE,115,2.0,8.0,41,0.00,,,0.00,850.000000,,2013-04-22 18:21:00,
2013-04-22 14:42:00,68.0,43.0,-100.00,ENE,69,2.0,8.0,41,0.00,,,0.00,868.000000,,2013-04-22 18:42:00,
2013-04-22 14:52:00,68.0,43.0,-100.00,ENE,69,2.0,8.0,41,0.00,,,0.00,868.000000,,2013-04-22 18:52:00,
2013-04-22 15:02:00,68.0,43.0,-100.00,ENE,69,2.0,8.0,41,0.00,,,0.00,868.000000,,2013-04-22 19:02:00,
2013-04-22 15:12:00,68.0,43.0,-100.00,ENE,69,2.0,8.0,41,0.00,,,0.00,868.000000,,2013-04-22 19:12:00,
2013-04-22 15:22:00,68.0,43.0,-100.00,ENE,69,2.0,8.0,41,0.00,,,0.00,868.000000,,2013-04-22 19:22:00,
2013-04-22 15:42:00,70.0,41.0,-100.00,NE,50,2.0,6.0,35,0.00,,,0.00,783.000000,,2013-04-22 19:42:00,
2013-04-22 15:53:00,70.0,41.0,-100.00,NE,50,2.0,6.0,35,0.00,,,0.00,783.000000,,2013-04-22 19:53:00,
2013-04-22 16:02:00,70.0,41.0,-100.00,NE,50,2.0,6.0,35,0.00,,,0.00,783.000000,,2013-04-22 20:02:00,
2013-04-22 16:11:00,70.0,41.0,-100.00,NE,50,2.0,6.0,35,0.00,,,0.00,783.000000,,2013-04-22 20:11:00,
2013-04-22 16:22:00,70.0,41.0,-100.00,NE,50,2.0,6.0,35,0.00,,,0.00,783.000000,,2013-04-22 20:22:00,
2013-04-22 16:42:00,70.0,40.0,-100.00,NE,43,1.0,9.0,34,0.00,,,0.00,766.000000,,2013-04-22 20:42:00,
2013-04-22 16:52:00,70.0,40.0,-100.00,NE,43,1.0,9.0,34,0.00,,,0.00,766.000000,,2013-04-22 20:52:00,
2013-04-22 17:02:00,70.0,40.0,-100.00,NE,43,1.0,9.0,34,0.00,,,0.00,766.000000,,2013-04-22 21:02:00,
2013-04-22 17:12:00,70.0,40.0,-100.00,NE,43,1.0,9.0,34,0.00,,,0.00,766.000000,,2013-04-22 21:12:00,
2013-04-22 17:21:00,70.0,40.0,-100.00,NE,43,1.0,9.0,34,0.00,,,0.00,766.000000,,2013-04-22 21:21:00,
2013-04-22 17:43:00,70.0,40.0,-100.00,ENE,58,2.0,11.0,34,0.00,,,0.00,392.000000,,2013-04-22 21:43:00,
2013-04-22 17:53:00,70.0,40.0,-100.00,ENE,58,2.0,11.0,34,0.00,,,0.00,392.000000,,2013-04-22 21:53:00,
2013-04-22 18:03:00,70.0,40.0,-100.00,ENE,58,2.0,11.0,34,0.00,,,0.00,392.000000,,2013-04-22 22:03:00,
2013-04-22 18:12:00,70.0,40.0,-100.00,ENE,58,2.0,11.0,34,0.00,,,0.00,392.000000,,2013-04-22 22:12:00,
2013-04-22 18:22:00,70.0,40.0,-100.00,ENE,58,2.0,11.0,34,0.00,,,0.00,392.000000,,2013-04-22 22:22:00,
2013-04-22 18:42:00,70.0,39.0,-100.00,East,95,0.0,6.0,32,0.00,,,0.00,371.000000,,2013-04-22 22:42:00,
2013-04-22 18:52:00,70.0,39.0,-100.00,East,95,0.0,6.0,32,0.00,,,0.00,371.000000,,2013-04-22 22:52:00,
2013-04-22 19:02:00,70.0,39.0,-100.00,East,95,0.0,6.0,32,0.00,,,0.00,371.000000,,2013-04-22 23:02:00,
2013-04-22 19:12:00,70.0,39.0,-100.00,East,95,0.0,6.0,32,0.00,,,0.00,371.000000,,2013-04-22 23:12:00,
2013-04-22 19:21:00,70.0,39.0,-100.00,East,95,0.0,6.0,32,0.00,,,0.00,371.000000,,2013-04-22 23:21:00,
2013-04-22 19:43:00,65.0,39.0,-100.00,ESE,105,1.0,6.0,39,0.00,,,0.00,142.000000,,2013-04-22 23:43:00,
2013-04-22 19:52:00,65.0,39.0,-100.00,ESE,105,1.0,6.0,39,0.00,,,0.00,142.000000,,2013-04-22 23:52:00,
2013-04-22 20:02:00,65.0,39.0,-100.00,ESE,105,1.0,6.0,39,0.00,,,0.00,142.000000,,2013-04-23 00:02:00,
2013-04-22 20:12:00,65.0,39.0,-100.00,ESE,105,1.0,6.0,39,0.00,,,0.00,142.000000,,2013-04-23 00:12:00,
2013-04-22 20:21:00,65.0,39.0,-100.00,ESE,105,1.0,6.0,39,0.00,,,0.00,142.000000,,2013-04-23 00:21:00,
2013-04-22 20:42:00,58.0,36.0,-100.00,ESE,109,0.0,0.0,43,0.00,,,0.00,19.000000,,2013-04-23 00:42:00,
2013-04-22 20:52:00,58.0,36.0,-100.00,ESE,109,0.0,0.0,43,0.00,,,0.00,19.000000,,2013-04-23 00:52:00,
2013-04-22 21:01:00,58.0,36.0,-100.00,ESE,109,0.0,0.0,43,0.00,,,0.00,19.000000,,2013-04-23 01:01:00,
2013-04-22 21:11:00,58.0,36.0,-100.00,ESE,109,0.0,0.0,43,0.00,,,0.00,19.000000,,2013-04-23 01:11:00,
2013-04-22 21:21:00,58.0,36.0,-100.00,ESE,109,0.0,0.0,43,0.00,,,0.00,19.000000,,2013-04-23 01:21:00,
2013-04-22 21:42:00,55.0,37.0,-100.00,East,101,0.0,0.0,50,0.00,,,0.00,0.000000,,2013-04-23 01:42:00,
2013-04-22 21:52:00,55.0,37.0,-100.00,East,101,0.0,0.0,50,0.00,,,0.00,0.000000,,2013-04-23 01:52:00,
2013-04-22 22:02:00,55.0,37.0,-100.00,East,101,0.0,0.0,50,0.00,,,0.00,0.000000,,2013-04-23 02:02:00,
2013-04-22 22:12:00,55.0,37.0,-100.00,East,101,0.0,0.0,50,0.00,,,0.00,0.000000,,2013-04-23 02:12:00,
2013-04-22 22:21:00,55.0,37.0,-100.00,East,101,0.0,0.0,50,0.00,,,0.00,0.000000,,2013-04-23 02:21:00,
2013-04-22 22:42:00,54.0,39.0,-100.00,ESE,106,2.0,5.0,57,0.00,,,0.00,0.000000,,2013-04-23 02:42:00,
2013-04-22 22:52:00,54.0,39.0,-100.00,ESE,106,2.0,5.0,57,0.00,,,0.00,0.000000,,2013-04-23 02:52:00,
2013-04-22 23:02:00,54.0,39.0,-100.00,ESE,106,2.0,5.0,57,0.00,,,0.00,0.000000,,2013-04-23 03:02:00,
2013-04-22 23:11:00,54.0,39.0,-100.00,ESE,106,2.0,5.0,57,0.00,,,0.00,0.000000,,2013-04-23 03:11:00,
2013-04-22 23:21:00,54.0,39.0,-100.00,ESE,106,2.0,5.0,57,0.00,,,0.00,0.000000,,2013-04-23 03:21:00,
2013-04-22 23:23:00,52.0,34.0,-100.00,East,99,2.0,6.0,50,0.00,,,0.00,0.000000,,2013-04-23 03:23:00,
2013-04-22 23:43:00,52.0,34.0,-100.00,East,99,2.0,6.0,50,0.00,,,0.00,0.000000,,2013-04-23 03:43:00,
2013-04-22 23:53:00,52.0,34.0,-100.00,East,99,2.0,6.0,50,0.00,,,0.00,0.000000,,2013-04-23 03:53:00,